カタログに戻る

DELTA 2 R/B(2)

運用中MEO
NORAD 34381·ROCKET BODY·🇺🇸 United States

打ち上げ Mar 7, 2009 から Cape Canaveral Space Force Station

Loading…

次のパス (今後24時間)

TLE

古いSource: Space-Track

元期: Mar 7, 2009, 14:37 UTC

1 34381U 09011B   09066.60924429 +.00000005 +00000-0 +00000-0 0  9992
2 34381 028.5476 044.5104 2287097 107.5267 278.6464 07.34265542000032

AllMySatでDELTA 2 R/B(2)をリアルタイム追跡

Download on the App Store